Location: Marcé
(47.5801°N, 0.3280°W)
Time: 00:03:48
(UTC+01:00)

Tiros 1 - All Passes

Search period start: 30 November 2021 00:00
Search period end: 10 December 2021 00:00
Orbit: 630 x 664 km, 48.4° (Epoch: 29 November)

Date Brightness Start Highest point End Pass type
(mag) Time Alt. Az. Time Alt. Az. Time Alt. Az.
30 Nov - 00:26:31 10° W 00:31:16 82° N 00:36:04 10° E night (unlit)
30 Nov - 02:08:45 10° WNW 02:13:25 55° SSW 02:18:06 10° SE night (unlit)
30 Nov - 03:51:52 10° W 03:54:55 17° SW 03:57:58 10° S night (unlit)
30 Nov - 19:48:25 10° S 19:51:18 16° SE 19:54:12 10° E visible
30 Nov - 21:28:12 10° SW 21:32:46 55° SSE 21:37:23 10° ENE visible
30 Nov - 23:10:11 10° W 23:14:54 82° N 23:19:42 10° E night (unlit)
01 Dec - 00:52:27 10° WNW 00:57:13 83° SSW 01:02:01 10° ESE night (unlit)
01 Dec - 02:34:51 10° W 02:39:06 33° SW 02:43:23 10° SSE night (unlit)
01 Dec - 20:12:42 10° SSW 20:16:47 30° SE 20:20:53 10° E visible
01 Dec - 21:53:55 10° WSW 21:58:36 81° SSE 22:03:22 10° ENE night (unlit)
01 Dec - 23:36:10 10° W 23:40:54 81° N 23:45:41 10° E night (unlit)
02 Dec - 01:18:24 10° WNW 01:23:04 58° SSW 01:27:46 10° SE night (unlit)
02 Dec - 03:01:24 10° W 03:04:38 18° SW 03:07:52 10° S night (unlit)
02 Dec - 18:58:23 10° S 19:01:01 15° SE 19:03:40 10° E visible
02 Dec - 20:37:55 10° SW 20:42:26 52° SSE 20:47:02 10° ENE visible
02 Dec - 22:19:50 10° W 22:24:33 83° N 22:29:19 10° E night (unlit)
03 Dec - 00:02:07 10° WNW 00:06:52 85° SSW 00:11:39 10° ESE night (unlit)
03 Dec - 01:44:28 10° W 01:48:47 35° SSW 01:53:07 10° SSE night (unlit)
03 Dec - 19:22:30 10° SSW 19:26:28 28° SE 19:30:29 10° E visible
03 Dec - 21:03:36 10° WSW 21:08:15 78° SSE 21:12:59 10° ENE visible
03 Dec - 22:45:49 10° W 22:50:33 81° N 22:55:18 10° E night (unlit)
04 Dec - 00:28:04 10° WNW 00:32:44 61° SSW 00:37:27 10° ESE night (unlit)
04 Dec - 02:10:56 10° W 02:14:19 19° SW 02:17:43 10° S night (unlit)
04 Dec - 18:08:23 10° SSE 18:10:44 14° SE 18:13:06 10° ESE visible
04 Dec - 19:47:38 10° SW 19:52:07 49° SSE 19:56:39 10° E visible
04 Dec - 21:29:30 10° W 21:34:12 84° N 21:38:57 10° E visible
04 Dec - 23:11:47 10° W 23:16:31 88° S 23:21:17 10° ESE night (unlit)
05 Dec - 00:54:06 10° W 00:58:28 37° SSW 01:02:51 10° SE night (unlit)
05 Dec - 18:32:18 10° SSW 18:36:10 27° SE 18:40:04 10° E visible
05 Dec - 20:13:16 10° WSW 20:17:55 75° SSE 20:22:37 10° ENE visible
05 Dec - 21:55:29 10° W 22:00:11 80° N 22:04:57 10° E visible
05 Dec - 23:37:43 10° WNW 23:42:23 64° SSW 23:47:06 10° ESE night (unlit)
06 Dec - 01:20:30 10° W 01:24:01 21° SW 01:27:33 10° S night (unlit)
06 Dec - 17:18:28 10° SSE 17:20:27 13° SE 17:22:27 10° ESE daylight
06 Dec - 18:57:21 10° SW 19:01:47 46° SSE 19:06:17 10° E visible
06 Dec - 20:39:10 10° W 20:43:50 85° N 20:48:35 10° E visible
06 Dec - 22:21:27 10° W 22:26:10 90° SSE 22:30:55 10° ESE night (unlit)
07 Dec - 00:03:44 10° W 00:08:08 39° SSW 00:12:34 10° SE night (unlit)
07 Dec - 17:42:07 10° SSW 17:45:52 25° SE 17:49:39 10° E visible
07 Dec - 19:22:57 10° WSW 19:27:35 72° SSE 19:32:16 10° ENE visible
07 Dec - 21:05:08 10° W 21:09:49 80° N 21:14:34 10° E visible
07 Dec - 22:47:23 10° WNW 22:52:03 67° SSW 22:56:45 10° ESE night (unlit)
08 Dec - 00:30:04 10° W 00:33:43 22° SW 00:37:22 10° SSE night (unlit)
08 Dec - 16:28:38 10° SSE 16:30:11 12° SE 16:31:44 10° ESE daylight
08 Dec - 18:07:05 10° SW 18:11:28 43° SSE 18:15:54 10° E visible
08 Dec - 19:48:49 10° W 19:53:30 87° N 19:58:13 10° E visible
08 Dec - 21:31:06 10° W 21:35:48 89° NNE 21:40:32 10° E visible
08 Dec - 23:13:23 10° W 23:17:49 42° SSW 23:22:16 10° SE night (unlit)
09 Dec - 00:57:50 10° WSW 00:59:06 11° SW 01:00:22 10° SSW night (unlit)
09 Dec - 16:51:56 10° SSW 16:55:34 23° SE 16:59:14 10° E daylight
09 Dec - 18:32:38 10° WSW 18:37:14 69° SSE 18:41:54 10° ENE visible
09 Dec - 20:14:48 10° W 20:19:28 80° N 20:24:11 10° E visible
09 Dec - 21:57:02 10° WNW 22:01:43 69° SSW 22:06:25 10° ESE visible
09 Dec - 23:39:39 10° W 23:43:24 24° SW 23:47:10 10° SSE night (unlit)
